EZY52KP EGCC-LEPA

Flight info

Callsign EZY52KP
Flight time 2h 8m
Altitude 37000
Route LISTO P18 TELBA L151 KIDLI UN859 SOPIL DCT BALAN DCT EVPOK DCT NARAK DCT GAI DCT LOMRA DCT ROCAN DCT IBRAP DCT LUKEV DCT LORES
Aircraft A320/M-SDE3FGHIRWY/LB1

Departure

Time 2026-05-05 09:49
Airport Manchester Airport (EGCC)

Arrival

Time 2026-05-05 11:57
Airport Palma de Mallorca Airport (LEPA)
Time Latitude Longitude Altitude Speed Heading
2026-05-05 09:28 53.36078 -2.27520 246 ft 0 kts 97°
2026-05-05 09:39 53.36078 -2.27521 246 ft 0 kts 97°
2026-05-05 09:39 53.36080 -2.27548 246 ft 2 kts 97°
2026-05-05 09:39 53.36082 -2.27575 245 ft 2 kts 97°
2026-05-05 09:40 53.36084 -2.27602 245 ft 2 kts 97°
2026-05-05 09:40 53.36086 -2.27629 245 ft 2 kts 97°
2026-05-05 09:40 53.36088 -2.27656 245 ft 2 kts 97°
2026-05-05 09:40 53.36088 -2.27657 245 ft 0 kts 97°
2026-05-05 09:41 53.36088 -2.27655 245 ft 1 kts 97°
2026-05-05 09:42 53.36082 -2.27634 245 ft 3 kts 127°
2026-05-05 09:42 53.36044 -2.27616 245 ft 8 kts 173°
2026-05-05 09:42 53.35989 -2.27619 244 ft 8 kts 187°
2026-05-05 09:42 53.35928 -2.27635 244 ft 10 kts 188°
2026-05-05 09:43 53.35849 -2.27651 243 ft 13 kts 186°
2026-05-05 09:43 53.35754 -2.27668 242 ft 14 kts 189°
2026-05-05 09:43 53.35683 -2.27780 241 ft 15 kts 232°
2026-05-05 09:43 53.35616 -2.27920 239 ft 16 kts 229°
2026-05-05 09:44 53.35585 -2.27982 239 ft 0 kts 231°
2026-05-05 09:45 53.35585 -2.27983 239 ft 1 kts 231°
2026-05-05 09:45 53.35574 -2.28006 239 ft 5 kts 232°
2026-05-05 09:45 53.35537 -2.28076 238 ft 12 kts 223°
2026-05-05 09:45 53.35435 -2.28156 238 ft 19 kts 189°
2026-05-05 09:46 53.35296 -2.28215 235 ft 22 kts 207°
2026-05-05 09:46 53.35185 -2.28393 231 ft 23 kts 232°
2026-05-05 09:46 53.35087 -2.28608 229 ft 24 kts 233°
2026-05-05 09:46 53.34974 -2.28814 226 ft 24 kts 226°
2026-05-05 09:47 53.34855 -2.29022 223 ft 25 kts 227°
2026-05-05 09:47 53.34741 -2.29244 220 ft 26 kts 230°
2026-05-05 09:47 53.34583 -2.29331 220 ft 22 kts 159°
2026-05-05 09:47 53.34567 -2.29165 220 ft 17 kts 52°
2026-05-05 09:48 53.34663 -2.28965 221 ft 39 kts 51°
2026-05-05 09:48 53.34945 -2.28382 230 ft 89 kts 51°
2026-05-05 09:48 53.35433 -2.27379 243 ft 132 kts 51°
2026-05-05 09:48 53.36079 -2.26054 443 ft 149 kts 47°
2026-05-05 09:49 53.36732 -2.24727 1045 ft 149 kts 47°
2026-05-05 09:49 53.37382 -2.23333 1599 ft 157 kts 59°
2026-05-05 09:49 53.37624 -2.21495 2127 ft 171 kts 92°
2026-05-05 09:49 53.37206 -2.19582 2670 ft 185 kts 127°
2026-05-05 09:50 53.36167 -2.18219 3230 ft 197 kts 148°
2026-05-05 09:50 53.34896 -2.17106 3620 ft 215 kts 163°
2026-05-05 09:50 53.33374 -2.16846 4192 ft 228 kts 187°
2026-05-05 09:50 53.31730 -2.17148 4749 ft 246 kts 186°
2026-05-05 09:51 53.29985 -2.17447 5343 ft 264 kts 186°
2026-05-05 09:51 53.28105 -2.17756 6068 ft 277 kts 186°
2026-05-05 09:51 53.26170 -2.18064 6980 ft 280 kts 186°
2026-05-05 09:51 53.24226 -2.18369 7906 ft 281 kts 186°
2026-05-05 09:52 53.22272 -2.18674 8789 ft 284 kts 187°
2026-05-05 09:52 53.20291 -2.18985 9639 ft 288 kts 187°
2026-05-05 09:52 53.18282 -2.19304 10384 ft 293 kts 187°
2026-05-05 09:52 53.16205 -2.19630 10891 ft 307 kts 187°
2026-05-05 09:53 53.14023 -2.19969 11313 ft 323 kts 187°
2026-05-05 09:53 53.11730 -2.20325 11708 ft 339 kts 187°
2026-05-05 09:53 53.09325 -2.20699 12056 ft 355 kts 187°
2026-05-05 09:53 53.06804 -2.21091 12364 ft 371 kts 187°
2026-05-05 09:54 53.04176 -2.21502 12614 ft 387 kts 187°
2026-05-05 09:54 53.01447 -2.21927 12809 ft 402 kts 187°
2026-05-05 09:54 52.98624 -2.22364 13111 ft 411 kts 187°
2026-05-05 09:54 52.95761 -2.22804 13611 ft 414 kts 187°
2026-05-05 09:55 52.92888 -2.23249 14148 ft 415 kts 187°
2026-05-05 09:55 52.90004 -2.23700 14665 ft 416 kts 187°
2026-05-05 09:55 52.87118 -2.24156 15158 ft 417 kts 188°
2026-05-05 09:55 52.84269 -2.25009 15647 ft 417 kts 195°
2026-05-05 09:56 52.81434 -2.26106 16075 ft 419 kts 195°
2026-05-05 09:56 52.78588 -2.27205 16515 ft 421 kts 194°
2026-05-05 09:56 52.75726 -2.28304 16956 ft 423 kts 194°
2026-05-05 09:56 52.72844 -2.29377 17394 ft 426 kts 192°
2026-05-05 09:57 52.69889 -2.29870 17824 ft 430 kts 182°
2026-05-05 09:57 52.66895 -2.29493 18235 ft 434 kts 172°
2026-05-05 09:57 52.63961 -2.28210 18591 ft 439 kts 161°
2026-05-05 09:57 52.61189 -2.26048 18924 ft 443 kts 151°
2026-05-05 09:58 52.58605 -2.23253 19245 ft 446 kts 148°
2026-05-05 09:58 52.56026 -2.20416 19556 ft 447 kts 148°
2026-05-05 09:58 52.53429 -2.17584 19858 ft 448 kts 148°
2026-05-05 09:58 52.50825 -2.14762 20150 ft 449 kts 148°
2026-05-05 09:59 52.48210 -2.11934 20428 ft 450 kts 148°
2026-05-05 09:59 52.45594 -2.09099 20683 ft 451 kts 148°
2026-05-05 09:59 52.42975 -2.06254 20938 ft 452 kts 148°
2026-05-05 09:59 52.40355 -2.03409 21152 ft 453 kts 148°
2026-05-05 10:00 52.37755 -2.00593 21367 ft 454 kts 148°
2026-05-05 10:00 52.35122 -1.97744 21565 ft 454 kts 148°
2026-05-05 10:00 52.32447 -1.94859 21750 ft 455 kts 148°
2026-05-05 10:00 52.29801 -1.92013 21917 ft 456 kts 148°
2026-05-05 10:01 52.27148 -1.89164 22076 ft 457 kts 148°
2026-05-05 10:01 52.24491 -1.86311 22227 ft 457 kts 148°
2026-05-05 10:01 52.21864 -1.83492 22368 ft 458 kts 148°
2026-05-05 10:01 52.19202 -1.80641 22501 ft 458 kts 148°
2026-05-05 10:02 52.16544 -1.77796 22623 ft 459 kts 148°
2026-05-05 10:02 52.13867 -1.74934 22759 ft 459 kts 148°
2026-05-05 10:02 52.11196 -1.72083 22890 ft 459 kts 148°
2026-05-05 10:02 52.08530 -1.69240 23030 ft 459 kts 148°
2026-05-05 10:03 52.05876 -1.66415 23170 ft 458 kts 148°
2026-05-05 10:03 52.03211 -1.63581 23303 ft 458 kts 148°
2026-05-05 10:03 52.00539 -1.60741 23439 ft 458 kts 148°
2026-05-05 10:03 51.97871 -1.57912 23575 ft 458 kts 148°
2026-05-05 10:04 51.95191 -1.55119 23688 ft 457 kts 150°
2026-05-05 10:04 51.92451 -1.52507 23803 ft 457 kts 152°
2026-05-05 10:04 51.89655 -1.50055 23919 ft 457 kts 154°
2026-05-05 10:04 51.86833 -1.47697 24027 ft 456 kts 154°
2026-05-05 10:05 51.84001 -1.45358 24145 ft 457 kts 154°
2026-05-05 10:05 51.81178 -1.42999 24265 ft 457 kts 154°
2026-05-05 10:05 51.78365 -1.40602 24381 ft 457 kts 153°
2026-05-05 10:05 51.75557 -1.38172 24503 ft 457 kts 153°
2026-05-05 10:06 51.72757 -1.35727 24623 ft 458 kts 153°
2026-05-05 10:06 51.69954 -1.33276 24730 ft 458 kts 153°
2026-05-05 10:06 51.67145 -1.30826 24862 ft 459 kts 153°
2026-05-05 10:06 51.64337 -1.28387 24980 ft 459 kts 153°
2026-05-05 10:07 51.61521 -1.25954 25104 ft 459 kts 153°
2026-05-05 10:07 51.58701 -1.23522 25242 ft 459 kts 153°
2026-05-05 10:07 51.55894 -1.21104 25549 ft 456 kts 153°
2026-05-05 10:07 51.53113 -1.18708 25904 ft 452 kts 153°
2026-05-05 10:08 51.50355 -1.16339 26279 ft 447 kts 154°
2026-05-05 10:08 51.47620 -1.13996 26666 ft 443 kts 154°
2026-05-05 10:08 51.44914 -1.11689 27061 ft 438 kts 154°
2026-05-05 10:08 51.42242 -1.09413 27452 ft 433 kts 154°
2026-05-05 10:09 51.39592 -1.07156 27852 ft 428 kts 154°
2026-05-05 10:09 51.36977 -1.04925 28273 ft 423 kts 154°
2026-05-05 10:09 51.34389 -1.02719 28686 ft 420 kts 155°
2026-05-05 10:09 51.31822 -1.00530 29107 ft 417 kts 155°
2026-05-05 10:10 51.29274 -0.98360 29544 ft 414 kts 155°
2026-05-05 10:10 51.26734 -0.96200 29974 ft 412 kts 155°
2026-05-05 10:10 51.24208 -0.94055 30358 ft 411 kts 155°
2026-05-05 10:10 51.21681 -0.91913 30705 ft 411 kts 155°
2026-05-05 10:11 51.19153 -0.89779 30972 ft 413 kts 155°
2026-05-05 10:11 51.16646 -0.87667 31231 ft 415 kts 154°
2026-05-05 10:11 51.14081 -0.85513 31488 ft 417 kts 154°
2026-05-05 10:11 51.11515 -0.83359 31739 ft 418 kts 154°
2026-05-05 10:12 51.08942 -0.81194 31994 ft 420 kts 154°
2026-05-05 10:12 51.06357 -0.79019 32256 ft 421 kts 154°
2026-05-05 10:12 51.03766 -0.76841 32517 ft 422 kts 154°
2026-05-05 10:12 51.01171 -0.74661 32780 ft 423 kts 154°
2026-05-05 10:13 50.98567 -0.72479 33047 ft 424 kts 154°
2026-05-05 10:13 50.95956 -0.70298 33316 ft 424 kts 154°
2026-05-05 10:13 50.93343 -0.68121 33586 ft 425 kts 154°
2026-05-05 10:13 50.90727 -0.65945 33862 ft 425 kts 154°
2026-05-05 10:14 50.88103 -0.63767 34115 ft 425 kts 154°
2026-05-05 10:14 50.85485 -0.61598 34349 ft 426 kts 154°
2026-05-05 10:14 50.82860 -0.59426 34583 ft 426 kts 154°
2026-05-05 10:14 50.80243 -0.57257 34823 ft 426 kts 154°
2026-05-05 10:15 50.77613 -0.55079 35073 ft 426 kts 154°
2026-05-05 10:15 50.74988 -0.52904 35311 ft 426 kts 154°
2026-05-05 10:15 50.72365 -0.50730 35554 ft 426 kts 154°
2026-05-05 10:15 50.69742 -0.48563 35803 ft 425 kts 154°
2026-05-05 10:16 50.67121 -0.46399 36052 ft 425 kts 154°
2026-05-05 10:16 50.64501 -0.44236 36305 ft 425 kts 154°
2026-05-05 10:16 50.61886 -0.42086 36561 ft 424 kts 154°
2026-05-05 10:16 50.59266 -0.39940 36818 ft 424 kts 154°
2026-05-05 10:17 50.56644 -0.37799 36974 ft 426 kts 154°
2026-05-05 10:17 50.53997 -0.35638 36990 ft 431 kts 154°
2026-05-05 10:17 50.48614 -0.31245 36963 ft 440 kts 154°
2026-05-05 10:18 50.43140 -0.26780 36964 ft 447 kts 154°
2026-05-05 10:18 50.37603 -0.22267 36959 ft 448 kts 154°
2026-05-05 10:19 50.32104 -0.17802 36960 ft 448 kts 154°
2026-05-05 10:19 50.26575 -0.13322 36957 ft 447 kts 154°
2026-05-05 10:20 50.21055 -0.08875 36958 ft 446 kts 154°
2026-05-05 10:20 50.15532 -0.04444 36962 ft 446 kts 154°
2026-05-05 10:21 50.09973 -0.00198 36969 ft 443 kts 161°
2026-05-05 10:21 50.04052 0.02348 36958 ft 441 kts 167°
2026-05-05 10:22 49.99060 0.04307 36952 ft 441 kts 167°
2026-05-05 10:22 49.93112 0.06640 36952 ft 440 kts 167°
2026-05-05 10:23 49.87180 0.08966 36953 ft 440 kts 167°
2026-05-05 10:23 49.81250 0.11286 36950 ft 439 kts 167°
2026-05-05 10:24 49.75370 0.13584 36942 ft 439 kts 167°
2026-05-05 10:24 49.69444 0.15891 36952 ft 439 kts 167°
2026-05-05 10:25 49.63536 0.18227 36957 ft 439 kts 166°
2026-05-05 10:25 49.57633 0.20638 36955 ft 439 kts 166°
2026-05-05 10:26 49.51722 0.23042 36952 ft 439 kts 166°
2026-05-05 10:26 49.45802 0.25411 36926 ft 440 kts 166°
2026-05-05 10:27 49.39881 0.27763 36927 ft 439 kts 166°
2026-05-05 10:27 49.33958 0.30116 36932 ft 439 kts 166°
2026-05-05 10:28 49.28049 0.32494 36922 ft 439 kts 165°
2026-05-05 10:28 49.22160 0.34992 36924 ft 439 kts 165°
2026-05-05 10:29 49.16316 0.37498 36915 ft 439 kts 165°
2026-05-05 10:29 49.10422 0.39982 36914 ft 439 kts 165°
2026-05-05 10:30 49.04526 0.42440 36910 ft 439 kts 165°
2026-05-05 10:30 48.98627 0.44894 36914 ft 440 kts 165°
2026-05-05 10:31 48.92731 0.47338 36902 ft 438 kts 165°
2026-05-05 10:31 48.86844 0.49789 36877 ft 438 kts 165°
2026-05-05 10:32 48.80954 0.52237 37101 ft 439 kts 165°
2026-05-05 10:32 48.78005 0.53455 37248 ft 439 kts 165°
2026-05-05 10:32 48.75047 0.54647 37403 ft 439 kts 166°
2026-05-05 10:33 48.72089 0.55810 37541 ft 440 kts 166°
2026-05-05 10:33 48.69126 0.56962 37665 ft 439 kts 166°
2026-05-05 10:33 48.66207 0.58092 37804 ft 439 kts 166°
2026-05-05 10:33 48.63241 0.59239 37943 ft 439 kts 166°
2026-05-05 10:34 48.60288 0.60386 38069 ft 439 kts 166°
2026-05-05 10:34 48.57335 0.61537 38210 ft 439 kts 166°
2026-05-05 10:34 48.54366 0.62693 38351 ft 440 kts 166°
2026-05-05 10:34 48.51402 0.63847 38472 ft 440 kts 166°
2026-05-05 10:35 48.48441 0.65023 38595 ft 440 kts 165°
2026-05-05 10:35 48.45485 0.66221 38707 ft 440 kts 165°
2026-05-05 10:35 48.39583 0.68646 38915 ft 439 kts 165°
2026-05-05 10:36 48.36637 0.69853 39026 ft 439 kts 165°
2026-05-05 10:36 48.33687 0.71056 39137 ft 439 kts 165°
2026-05-05 10:36 48.30737 0.72252 39243 ft 438 kts 165°
2026-05-05 10:36 48.27790 0.73441 39355 ft 438 kts 165°
2026-05-05 10:37 48.24841 0.74628 39467 ft 439 kts 166°
2026-05-05 10:37 48.21891 0.75804 39581 ft 439 kts 166°
2026-05-05 10:37 48.18935 0.76973 39693 ft 439 kts 166°
2026-05-05 10:37 48.15986 0.78130 39830 ft 438 kts 166°
2026-05-05 10:38 48.10042 0.80450 39853 ft 445 kts 166°
2026-05-05 10:38 48.04013 0.82819 39848 ft 450 kts 166°
2026-05-05 10:39 47.97960 0.85188 39838 ft 449 kts 166°
2026-05-05 10:39 47.91908 0.87545 39840 ft 450 kts 166°
2026-05-05 10:40 47.85851 0.89897 39848 ft 450 kts 166°
2026-05-05 10:40 47.79789 0.92252 39848 ft 450 kts 166°
2026-05-05 10:41 47.73762 0.94590 39848 ft 451 kts 166°
2026-05-05 10:41 47.67703 0.96935 39847 ft 450 kts 166°
2026-05-05 10:42 47.58593 1.00435 39845 ft 451 kts 167°
2026-05-05 10:43 47.52517 1.02761 39860 ft 451 kts 167°
2026-05-05 10:43 47.46452 1.05083 39869 ft 450 kts 167°
2026-05-05 10:44 47.40295 1.06387 39886 ft 447 kts 182°
2026-05-05 10:44 47.34076 1.06234 39868 ft 447 kts 182°
2026-05-05 10:45 47.27863 1.06089 39872 ft 446 kts 182°
2026-05-05 10:45 47.21658 1.05953 39874 ft 446 kts 182°
2026-05-05 10:46 47.15492 1.05803 39873 ft 446 kts 182°
2026-05-05 10:46 47.09294 1.05660 39874 ft 446 kts 182°
2026-05-05 10:47 47.03079 1.05518 39875 ft 447 kts 182°
2026-05-05 10:47 46.96869 1.05315 39874 ft 446 kts 182°
2026-05-05 10:48 46.90661 1.05014 39872 ft 447 kts 183°
2026-05-05 10:48 46.84441 1.04716 39878 ft 447 kts 183°
2026-05-05 10:49 46.78226 1.04449 39880 ft 447 kts 182°
2026-05-05 10:49 46.72004 1.04197 39884 ft 447 kts 182°
2026-05-05 10:50 46.65787 1.03945 39889 ft 447 kts 183°
2026-05-05 10:50 46.59579 1.03678 39890 ft 446 kts 183°
2026-05-05 10:51 46.53367 1.03420 39889 ft 447 kts 180°
2026-05-05 10:51 46.47222 1.04795 39891 ft 449 kts 168°
2026-05-05 10:52 46.41135 1.06847 39892 ft 449 kts 168°
2026-05-05 10:52 46.35044 1.08886 39897 ft 449 kts 169°
2026-05-05 10:53 46.28958 1.10911 39902 ft 449 kts 169°
2026-05-05 10:53 46.22869 1.12926 39906 ft 449 kts 169°
2026-05-05 10:54 46.16781 1.14945 39912 ft 449 kts 169°
2026-05-05 10:54 46.10690 1.16960 39919 ft 449 kts 169°
2026-05-05 10:55 46.04605 1.18961 39930 ft 448 kts 169°
2026-05-05 10:55 45.98560 1.20949 39926 ft 448 kts 169°
2026-05-05 10:56 45.92480 1.22944 39924 ft 448 kts 169°
2026-05-05 10:56 45.86395 1.24939 39924 ft 449 kts 169°
2026-05-05 10:57 45.80305 1.26934 39929 ft 448 kts 169°
2026-05-05 10:57 45.74222 1.28920 39929 ft 449 kts 169°
2026-05-05 10:58 45.68133 1.30908 39926 ft 448 kts 169°
2026-05-05 10:58 45.62047 1.32880 39926 ft 448 kts 169°
2026-05-05 10:59 45.55974 1.34845 39937 ft 449 kts 169°
2026-05-05 10:59 45.49862 1.36822 39930 ft 449 kts 169°
2026-05-05 11:00 45.43787 1.38789 39471 ft 444 kts 169°
2026-05-05 11:00 45.40784 1.39758 39014 ft 439 kts 169°
2026-05-05 11:00 45.37800 1.40714 38878 ft 441 kts 169°
2026-05-05 11:01 45.31815 1.42629 38949 ft 445 kts 170°
2026-05-05 11:01 45.25744 1.44581 38937 ft 448 kts 169°
2026-05-05 11:02 45.19659 1.46533 38945 ft 448 kts 170°
2026-05-05 11:02 45.13605 1.48460 38415 ft 443 kts 170°
2026-05-05 11:02 45.10595 1.49419 37527 ft 443 kts 170°
2026-05-05 11:03 45.07600 1.50376 37007 ft 438 kts 170°
2026-05-05 11:03 45.04621 1.51331 36880 ft 441 kts 170°
2026-05-05 11:03 45.01613 1.52293 36941 ft 444 kts 170°
2026-05-05 11:04 44.95553 1.54209 36945 ft 447 kts 170°
2026-05-05 11:04 44.89485 1.56125 36947 ft 447 kts 170°
2026-05-05 11:05 44.83409 1.58041 36943 ft 447 kts 170°
2026-05-05 11:05 44.77333 1.59958 36950 ft 447 kts 171°
2026-05-05 11:06 44.71261 1.61865 36953 ft 447 kts 171°
2026-05-05 11:06 44.65188 1.63771 36958 ft 447 kts 171°
2026-05-05 11:07 44.59120 1.65676 36958 ft 447 kts 171°
2026-05-05 11:07 44.53049 1.67580 36956 ft 447 kts 171°
2026-05-05 11:08 44.48012 1.69152 36962 ft 446 kts 171°
2026-05-05 11:08 44.40966 1.71341 36962 ft 446 kts 171°
2026-05-05 11:09 44.34909 1.73210 36967 ft 446 kts 171°
2026-05-05 11:09 44.29837 1.74776 36963 ft 445 kts 172°
2026-05-05 11:10 44.23751 1.76354 36964 ft 443 kts 175°
2026-05-05 11:10 44.17692 1.77608 36966 ft 443 kts 175°
2026-05-05 11:11 44.11595 1.78850 36967 ft 443 kts 175°
2026-05-05 11:11 44.05502 1.80173 36963 ft 443 kts 175°
2026-05-05 11:12 43.99426 1.81528 36965 ft 442 kts 175°
2026-05-05 11:12 43.93337 1.82771 36966 ft 440 kts 178°
2026-05-05 11:13 43.87241 1.83425 36967 ft 438 kts 181°
2026-05-05 11:13 43.81157 1.83847 36971 ft 438 kts 181°
2026-05-05 11:14 43.75081 1.84350 36979 ft 437 kts 181°
2026-05-05 11:14 43.69010 1.84949 36982 ft 437 kts 180°
2026-05-05 11:15 43.62950 1.85561 36984 ft 436 kts 180°
2026-05-05 11:15 43.56930 1.86154 36983 ft 435 kts 181°
2026-05-05 11:16 43.50896 1.86727 36977 ft 434 kts 181°
2026-05-05 11:16 43.44872 1.87293 36973 ft 433 kts 181°
2026-05-05 11:17 43.38854 1.87866 36965 ft 433 kts 181°
2026-05-05 11:17 43.32852 1.88447 36964 ft 432 kts 181°
2026-05-05 11:18 43.26859 1.89034 36968 ft 431 kts 181°
2026-05-05 11:18 43.20876 1.89608 36967 ft 430 kts 181°
2026-05-05 11:19 43.14901 1.90172 36966 ft 430 kts 182°
2026-05-05 11:19 43.08936 1.90735 36965 ft 430 kts 182°
2026-05-05 11:20 43.02972 1.91308 36959 ft 429 kts 182°
2026-05-05 11:20 42.97013 1.91878 36953 ft 429 kts 182°
2026-05-05 11:21 42.91060 1.92446 36964 ft 429 kts 182°
2026-05-05 11:21 42.85152 1.92989 36960 ft 428 kts 182°
2026-05-05 11:22 42.79222 1.93541 36941 ft 426 kts 182°
2026-05-05 11:22 42.73300 1.94105 36946 ft 427 kts 182°
2026-05-05 11:23 42.67377 1.94794 36939 ft 431 kts 177°
2026-05-05 11:23 42.61510 1.96770 36923 ft 435 kts 172°
2026-05-05 11:24 42.55655 1.98878 36934 ft 435 kts 172°
2026-05-05 11:24 42.49796 2.00975 36928 ft 435 kts 172°
2026-05-05 11:25 42.43949 2.03072 36924 ft 434 kts 172°
2026-05-05 11:25 42.38149 2.05146 36926 ft 434 kts 173°
2026-05-05 11:26 42.32317 2.07222 36925 ft 433 kts 173°
2026-05-05 11:26 42.26464 2.09303 36931 ft 435 kts 173°
2026-05-05 11:27 42.20632 2.11371 36930 ft 433 kts 173°
2026-05-05 11:27 42.14793 2.13430 36918 ft 433 kts 173°
2026-05-05 11:28 42.08964 2.15490 36921 ft 433 kts 173°
2026-05-05 11:28 42.03121 2.17558 36930 ft 434 kts 173°
2026-05-05 11:29 41.97283 2.19611 36930 ft 433 kts 173°
2026-05-05 11:29 41.91428 2.21664 36931 ft 435 kts 173°
2026-05-05 11:30 41.85612 2.23698 36936 ft 435 kts 173°
2026-05-05 11:30 41.79753 2.25747 36944 ft 435 kts 173°
2026-05-05 11:31 41.73893 2.27797 36953 ft 435 kts 173°
2026-05-05 11:31 41.68033 2.29848 36956 ft 435 kts 173°
2026-05-05 11:32 41.62177 2.31888 36960 ft 435 kts 173°
2026-05-05 11:32 41.56316 2.33916 36963 ft 435 kts 174°
2026-05-05 11:33 41.50453 2.35955 36963 ft 435 kts 174°
2026-05-05 11:33 41.44597 2.37993 36959 ft 435 kts 174°
2026-05-05 11:34 41.38744 2.40021 36955 ft 435 kts 174°
2026-05-05 11:34 41.32884 2.42033 36945 ft 434 kts 174°
2026-05-05 11:35 41.27029 2.44051 36948 ft 434 kts 174°
2026-05-05 11:35 41.21184 2.46070 36952 ft 434 kts 174°
2026-05-05 11:36 41.15396 2.48056 36594 ft 428 kts 174°
2026-05-05 11:36 41.12519 2.49041 35761 ft 427 kts 175°
2026-05-05 11:36 41.09645 2.50023 34877 ft 426 kts 175°
2026-05-05 11:36 41.06774 2.51003 34023 ft 424 kts 175°
2026-05-05 11:37 41.03924 2.51977 33048 ft 422 kts 175°
2026-05-05 11:37 41.01078 2.52953 31999 ft 422 kts 175°
2026-05-05 11:37 40.98235 2.53923 31148 ft 422 kts 175°
2026-05-05 11:37 40.95369 2.54892 30584 ft 429 kts 175°
2026-05-05 11:38 40.92461 2.55867 30081 ft 432 kts 175°
2026-05-05 11:38 40.89542 2.56855 29517 ft 434 kts 175°
2026-05-05 11:38 40.86610 2.57853 28947 ft 436 kts 175°
2026-05-05 11:38 40.83663 2.58859 28389 ft 438 kts 175°
2026-05-05 11:39 40.80703 2.59867 27846 ft 440 kts 174°
2026-05-05 11:39 40.77730 2.60881 27317 ft 442 kts 174°
2026-05-05 11:39 40.74742 2.61894 26791 ft 444 kts 174°
2026-05-05 11:39 40.71740 2.62910 26274 ft 447 kts 174°
2026-05-05 11:40 40.68721 2.63933 25768 ft 449 kts 173°
2026-05-05 11:40 40.65687 2.64959 25272 ft 451 kts 173°
2026-05-05 11:40 40.62638 2.65984 24789 ft 453 kts 173°
2026-05-05 11:40 40.59573 2.67011 24309 ft 456 kts 173°
2026-05-05 11:41 40.56494 2.68050 23844 ft 458 kts 172°
2026-05-05 11:41 40.53445 2.69079 23361 ft 458 kts 172°
2026-05-05 11:41 40.50344 2.70291 22813 ft 462 kts 166°
2026-05-05 11:41 40.47464 2.72085 22286 ft 466 kts 157°
2026-05-05 11:42 40.44641 2.74148 21762 ft 463 kts 157°
2026-05-05 11:42 40.41827 2.76196 21250 ft 460 kts 157°
2026-05-05 11:42 40.39031 2.78226 20811 ft 458 kts 157°
2026-05-05 11:42 40.36256 2.80239 20433 ft 449 kts 157°
2026-05-05 11:43 40.33588 2.82184 20076 ft 434 kts 157°
2026-05-05 11:43 40.30981 2.84086 19716 ft 420 kts 157°
2026-05-05 11:43 40.28486 2.85920 19355 ft 402 kts 157°
2026-05-05 11:43 40.26089 2.87693 18936 ft 389 kts 157°
2026-05-05 11:44 40.23766 2.89417 18486 ft 379 kts 157°
2026-05-05 11:44 40.21502 2.91097 18004 ft 370 kts 157°
2026-05-05 11:44 40.19281 2.92741 17476 ft 363 kts 157°
2026-05-05 11:44 40.17102 2.94345 16957 ft 356 kts 157°
2026-05-05 11:45 40.14959 2.95911 16459 ft 350 kts 157°
2026-05-05 11:45 40.12842 2.97447 15954 ft 345 kts 157°
2026-05-05 11:45 40.10755 2.98946 15458 ft 340 kts 157°
2026-05-05 11:45 40.08691 3.00410 14973 ft 336 kts 157°
2026-05-05 11:46 40.06674 3.01824 14496 ft 332 kts 157°
2026-05-05 11:46 40.04644 3.03231 14033 ft 328 kts 157°
2026-05-05 11:46 40.02633 3.04609 13536 ft 325 kts 157°
2026-05-05 11:46 40.00637 3.05963 13011 ft 322 kts 157°
2026-05-05 11:47 39.98654 3.07295 12495 ft 319 kts 157°
2026-05-05 11:47 39.96679 3.08607 11990 ft 317 kts 157°
2026-05-05 11:47 39.94720 3.09896 11489 ft 315 kts 157°
2026-05-05 11:47 39.92744 3.11062 11014 ft 308 kts 168°
2026-05-05 11:48 39.88552 3.11443 10059 ft 301 kts 182°
2026-05-05 11:48 39.86465 3.11452 9499 ft 299 kts 182°
2026-05-05 11:48 39.84406 3.11391 8851 ft 293 kts 188°
2026-05-05 11:49 39.82409 3.10981 8214 ft 289 kts 192°
2026-05-05 11:49 39.80443 3.10501 7591 ft 286 kts 192°
2026-05-05 11:49 39.78493 3.10015 6976 ft 284 kts 192°
2026-05-05 11:49 39.76556 3.09532 6377 ft 283 kts 192°
2026-05-05 11:50 39.74629 3.09053 5744 ft 282 kts 192°
2026-05-05 11:50 39.72709 3.08571 5126 ft 280 kts 192°
2026-05-05 11:50 39.70882 3.07789 4531 ft 276 kts 213°
2026-05-05 11:50 39.69562 3.06028 3901 ft 274 kts 237°
2026-05-05 11:51 39.68577 3.03920 3265 ft 273 kts 239°
2026-05-05 11:51 39.67626 3.01839 2977 ft 259 kts 238°
2026-05-05 11:51 39.66734 2.99927 2973 ft 237 kts 238°
2026-05-05 11:51 39.65910 2.98174 2970 ft 218 kts 237°
2026-05-05 11:52 39.65156 2.96570 2976 ft 198 kts 237°
2026-05-05 11:52 39.64475 2.95121 3054 ft 177 kts 237°
2026-05-05 11:52 39.63868 2.93829 3036 ft 157 kts 238°
2026-05-05 11:52 39.63330 2.92685 2915 ft 142 kts 237°
2026-05-05 11:53 39.62828 2.91618 2757 ft 137 kts 236°
2026-05-05 11:53 39.62328 2.90558 2583 ft 138 kts 237°
2026-05-05 11:53 39.61831 2.89500 2424 ft 137 kts 235°
2026-05-05 11:53 39.61333 2.88444 2226 ft 138 kts 236°
2026-05-05 11:54 39.60839 2.87397 2034 ft 136 kts 236°
2026-05-05 11:54 39.60348 2.86354 1870 ft 136 kts 237°
2026-05-05 11:54 39.59855 2.85310 1677 ft 135 kts 236°
2026-05-05 11:54 39.59368 2.84274 1480 ft 134 kts 238°
2026-05-05 11:55 39.58879 2.83234 1332 ft 135 kts 237°
2026-05-05 11:55 39.58387 2.82198 1132 ft 134 kts 236°
2026-05-05 11:55 39.57903 2.81169 974 ft 135 kts 236°
2026-05-05 11:55 39.57418 2.80134 763 ft 132 kts 236°
2026-05-05 11:56 39.56921 2.79088 632 ft 141 kts 236°
2026-05-05 11:56 39.56412 2.78026 397 ft 134 kts 237°
2026-05-05 11:56 39.56093 2.77359 278 ft 130 kts 238°
2026-05-05 11:56 39.55633 2.76350 103 ft 129 kts 238°
2026-05-05 11:57 39.55185 2.75419 28 ft 110 kts 238°
2026-05-05 11:57 39.54879 2.74761 27 ft 50 kts 242°
2026-05-05 11:57 39.54803 2.74410 30 ft 37 kts 266°
2026-05-05 11:57 39.54833 2.74129 30 ft 30 kts 311°
2026-05-05 11:58 39.55007 2.73983 29 ft 30 kts 329°
2026-05-05 11:58 39.55188 2.73842 26 ft 31 kts 329°
2026-05-05 11:58 39.55373 2.73696 25 ft 32 kts 328°
2026-05-05 11:58 39.55492 2.73566 22 ft 19 kts 269°
2026-05-05 11:59 39.55427 2.73419 22 ft 19 kts 238°
2026-05-05 11:59 39.55358 2.73274 23 ft 19 kts 238°
2026-05-05 11:59 39.55288 2.73128 23 ft 19 kts 238°
2026-05-05 11:59 39.55220 2.72981 23 ft 19 kts 239°
2026-05-05 12:00 39.55152 2.72849 24 ft 14 kts 215°
2026-05-05 12:00 39.55078 2.72835 24 ft 8 kts 182°
2026-05-05 12:00 39.55073 2.72835 24 ft 0 kts 181°